Regional Weather Roundup
Issued by NWS

Home | Current Version | Previous Version | Text Only | Print | Product List | Glossary On
Versions: 1 2 3 4 5 6 7 8 9 10 11 12 13 14 15 16 17 18 19 20 21 22 23 24 25 26 27 28 29 30 31 32 33 34 35 36 37 38 39 40 41 42 43 44 45 46 47 48 49 50
000
ASUS44 KFWD 240410
RWRTX
NORTH TEXAS HOURLY WEATHER ROUNDUP
NATIONAL WEATHER SERVICE FORT WORTH TX
1000 PM CST SUN NOV 23 2014

NOTE: "FAIR" INDICATES FEW OR NO CLOUDS BELOW 12,000 FEET WITH NO
SIGNIFICANT WEATHER AND/OR OBSTRUCTIONS TO VISIBILITY.

TXZ118-119-240500-
DALLAS/FORT WORTH METROPLEX

CITY           SKY/WX    TMP DP  RH WIND       PRES   REMARKS
DFW AIRPORT    PTCLDY    50  39  66 NW22G32   29.77R
DALLAS LOVE    MOCLDY    53  39  59 N29G40    29.76R
FTW MEACHAM    CLEAR     51  39  63 NW22G30   29.78R
DAL-EXECUTIVE  CLOUDY    54  39  57 NW26G37   29.76R
FTW-ALLIANCE   PTCLDY    49  38  65 NW15G24   29.79R
FTW-SPINKS     CLEAR     52  39  60 NW24      29.81R
ARLINGTON      PTCLDY    53  38  56 NW20G28   29.78R
GRAND PRAIRIE  PTCLDY    52  41  65 NW9G23    29.80R
ADDISON        CLOUDY    53  43  69 NW21G26   29.79R
MESQUITE       CLEAR     52  38  59 NW20G36   29.75R
LANCASTER      CLEAR     52  38  59 NW23G32   29.76R
$$

TXZ091>094-102>105-117-120-121-131>134-240500-
NORTH CENTRAL TEXAS

CITY           SKY/WX    TMP DP  RH WIND       PRES   REMARKS
SHRMAN/DENISON CLOUDY    51  43  74 NW24G31   29.75R
GAINESVILLE    PTCLDY    47  37  68 NW15G21   29.80R
BOWIE          PTCLDY    47  38  73 NW13G18   29.79R
BRIDGEPORT     CLEAR     49  39  68 NW10G17   29.83R
DECATUR        CLEAR     47  37  67 NW13      29.80R
DENTON         CLEAR     49  38  65 NW18G29   29.78R
MCKINNEY       CLOUDY    52  39  61 NW23G32   29.74R
GREENVILLE     CLEAR     52  39  62 W25G36    29.72R
ROCKWALL       PTCLDY    52  40  64 NW25G36   29.73R
TERRELL        CLEAR     55  41  59 NW18G28   29.74R
WAXAHACHIE     CLEAR     52  41  66 NW22G35   29.76R
CLEBURNE       CLEAR     52  39  62 NW16G24   29.81R
GRANBURY       CLEAR     52  38  59 NW15G24   29.83R
$$

TXZ083>090-098>101-113>116-127>130-139>142-154-155-240500-
WESTERN NORTH TEXAS

CITY           SKY/WX    TMP DP  RH WIND       PRES   REMARKS
WICHITA FALLS  CLOUDY    50  36  58 NW12      29.80R
WF-KICKAPOO    CLOUDY    51  35  53 NW9       29.82R
VERNON         PTCLDY    48  34  57 NW10      29.84R
ABILENE        PTCLDY    47  35  63 NW15      29.89R
ABILENE-DYESS  PTCLDY    46  35  66 N14       29.88R WCI  40
BRECKENRIDGE   PTCLDY    49  35  59 CALM      29.86R
GRAHAM         CLEAR     47  37  69 NW5       29.82R
MINERAL WELLS  CLEAR    N/A N/A N/A NW17      29.81R
STEPHENVILLE   PTCLDY    49  36  60 N16       29.85R
COMANCHE       PTCLDY    50  38  65 N22G29    29.87R
BROWNWOOD      CLOUDY    50  32  50 N9G20     29.88R
COLEMAN        MOCLDY    49  38  65 N16G24    29.88R
BRADY          CLEAR     50  37  62 N14       29.87R
$$

TXZ143>147-156>162-174-175-240500-
CENTRAL TEXAS

CITY           SKY/WX    TMP DP  RH WIND       PRES   REMARKS
WACO           CLEAR     56  39  53 NW17G24   29.79R
WACO-TSTC      CLEAR     57  39  51 NW17      29.79
WACO-MCGREGOR  CLEAR     55  36  47 N20G29    29.81R
HILLSBORO      CLEAR     53  39  58 NW23G31   29.79R
CORSICANA      CLEAR     55  41  59 NW15      29.76R
MEXIA          CLEAR     56  42  57 NW12G20   29.74R
HEARNE         CLEAR     62  44  53 NW16G23   29.75R
CAMERON        CLEAR     60  44  54 N21G28    29.76R
TEMPLE         CLEAR     57  37  47 NW20G29   29.78R
KILLEEN        CLEAR     56  39  52 NW22G30   29.80R
KILLEEN-SKYLRK CLEAR     57  36  44 NW15G23   29.79R
FORT HOOD      CLEAR     60  39  45 NW17G30   29.80R
GATESVILLE     CLEAR     55  37  50 N17G23    29.83R
HAMILTON       CLEAR     52  38  59 N15G21    29.84R
LAMPASAS       CLEAR     55  41  58 N12G20    29.81R
$$

TXZ095>097-106>112-122>126-135>138-148>153-164>167-240500-
EAST TEXAS

CITY           SKY/WX    TMP DP  RH WIND       PRES   REMARKS
PARIS          CLOUDY    54  41  62 NW24      29.65R
SULPHUR SPRNGS CLEAR     54  42  63 NW21G26   29.70R
MOUNT PLEASANT CLEAR     56  44  63 W18G24    29.66R
MINEOLA        CLEAR     55  43  62 NW12      29.69R
TYLER          CLEAR     57  42  57 NW17G28   29.68R
LONGVIEW       CLEAR     61  45  55 W10       29.63R
MARSHALL       CLEAR     64  46  52 W8        29.64R
ATHENS         CLEAR     55  41  58 NW8G21    29.71R
PALESTINE      CLEAR     60  44  55 W14G25    29.72R
JACKSONVILLE   CLEAR     62  44  50 NW17G28   29.68R
HENDERSON      CLEAR     62  45  53 NW13G20   29.67R
NACOGDOCHES    CLEAR     57  48  72 NW5       29.67R
LUFKIN         CLEAR     62  50  64 W5        29.66R
$$

SUPPLEMENTAL OBSERVATIONS (CENTRAL)

CITY           SKY/WX    TMP DP  RH WIND       PRES   REMARKS
PAT MAYSE LAKE   N/A     52  41  66 W20         N/A
GREENVILLE       N/A     52  41  66 NW12G29     N/A
CEDAR HILL       N/A     52  39  62 NW10G23     N/A
MCGREGOR         N/A     55  37  50 N14G26      N/A
$$

SUPPLEMENTAL OBSERVATIONS (WEST)

CITY           SKY/WX    TMP DP  RH WIND       PRES   REMARKS
MILLERS CREEK    N/A     45  32  61 W7G16       N/A
HAMBY            N/A     46  36  66 N9G20       N/A
IVIE RESERVOIR   N/A     50  36  57 NW13        N/A
COLORADO BEND    N/A     54  34  47 N10G18      N/A
$$

SUPPLEMENTAL OBSERVATIONS (EAST)

CITY           SKY/WX    TMP DP  RH WIND       PRES   REMARKS
CLARKSVILLE      N/A     52  41  66 W12G21      N/A
TEXARKANA        N/A     61  45  55 SW8G17      N/A
LINDEN           N/A     61  46  59 W10G18      N/A
GILMER           N/A     57  43  58 W12G24      N/A
HENDERSON        N/A     63  45  51 NW13        N/A
N SABINE NF      N/A     61  55  82 MISG        N/A
S SABINE NF      N/A     55  52  88 S1          N/A
$$

SUPPLEMENTAL OBSERVATIONS ARE A COLLECTION OF AUTOMATED INSTRUMENTS
THAT ARE MAINTAINED BY A VARIETY OF FEDERAL AND STATE AGENCIES.
CERTAIN ELEMENTS...SUCH AS HUMIDITY VALUES AND SUSTAINED WIND
SPEEDS...MAY BE APPROXIMATED.




USA.gov is the U.S. government's official web portal to all federal, state and local government web resources and services.